Submittal Forms
Current Contests
Recent Contests

Club Activity Tracker - Kentucky Contest Group (from club selection on form)

Recent postings for the selected club or group are listed below. Other than the call used, all calls listed are only those associated with the club or group. Click on a call to see the details of the posting.
Status Key: new=new posting, update=update prior posting, move=change club/group, delete=delete prior posting.

Sort by   for past

TimestampCallContestClassPowerScoreStatus
2021-05-14 03:04:49K4FNNCCC SprintSingle OpLP630new6425
2021-05-13 04:05:52K4FNCWopsTSingle OpLP12,760new6421
2021-05-13 04:05:07KM4FOCWopsTSingle OpLP5,236new6421
2021-05-13 04:02:51K4TZCWopsTSingle OpLP3,900new6421
2021-05-13 03:18:16KC4WQCWopsTSingle OpLP400new6421
2021-05-12 20:05:47KM4FOCWopsTSingle OpLP3,660new6420
2021-05-12 20:03:22K4FNCWopsTSingle OpLP11,130new6420
2021-05-12 20:02:22K4TZCWopsTSingle OpLP2,116new6420
2021-05-12 20:01:04KE4KYCWopsTSingle OpHP9,025new6420
2021-05-12 19:22:34KC4WQCWopsTSingle OpLP400new6420
 
2021-05-12 17:24:59K4WWCWopsTSingle OpHP17,956update6419
2021-05-12 14:13:43KE4KYCWopsTSingle OpHP6,724new6419
2021-05-12 14:11:36K4AVXCWopsTSingle OpLP324new6419
2021-05-12 14:05:24KM4FOCWopsTSingle OpLP4,900new6419
2021-05-12 14:04:49K4FNCWopsTSingle OpLP10,608new6419
2021-05-12 14:03:08K4TZCWopsTSingle OpLP3,481new6419
2021-05-12 13:15:02KC4WQCWopsTSingle OpLP100new6419
2021-05-10 01:11:37KM4FOKRC SSTSingle OpLP192new6415
2021-05-10 01:02:00KM4CHKRC SSTSingle OpLP238new6415
2021-05-09 16:46:28K4TZCQ-MSOABCWLP2,016new6412
 
2021-05-09 15:42:06KM4FOArQPSOCWLP60new6413
2021-05-09 12:48:55N4QSVolta RTTYSOSB/20HP646,425new6411
2021-05-09 12:45:14K4WWCQ-MSOSB/20CWHP23,556new6412
2021-05-09 12:38:35N4QSCQ-MSOABCWHP24,600new6412
2021-05-09 02:05:21ND4YArQPSOMixedHP4,026new6413
2021-05-07 03:04:11K4FNNCCC SprintSingle OpLP630new6409
2021-05-06 04:05:55KM4FOCWopsTSingle OpLP5,313new6404
2021-05-06 04:04:06K4FNCWopsTSingle OpLP12,543new6404
2021-05-06 04:01:54KM4CHCWopsTSingle OpLP2,070new6404
2021-05-06 03:32:25K4TZCWopsTSingle OpLP400new6404
 
2021-05-06 03:22:50KC4WQCWopsTSingle OpLP1,225new6404
2021-05-05 20:05:50KM4FOCWopsTSingle OpLP1,521new6403
2021-05-05 20:03:49K4FNCWopsTSingle OpLP11,128new6403
2021-05-05 20:02:48KM4CHCWopsTSingle OpLP1,089new6403
2021-05-05 20:02:33K4TZCWopsTSingle OpLP2,116new6403
2021-05-05 19:47:22KE4KYCWopsTSingle OpHP5,625new6403
2021-05-05 19:24:24KC4WQCWopsTSingle OpLP900new6403
2021-05-05 14:11:15K4WWCWopsTSingle OpHP24,336new6402
2021-05-05 14:04:58K4TZCWopsTSingle OpLP4,900new6402
2021-05-05 14:04:50KM4CHCWopsTSingle OpLP1,935new6402
 
2021-05-05 14:04:26KM4FOCWopsTSingle OpLP4,489new6402
2021-05-05 14:03:43KE4KYCWopsTSingle OpHP21,025new6402
2021-05-05 14:03:30K4FNCWopsTSingle OpLP11,118new6402
2021-05-05 14:02:35W4PFCWopsTSingle OpHP2,548new6402
2021-05-05 14:01:18K4FTCWopsTSingle OpLP4,899new6402
2021-05-05 13:12:11KC4WQCWopsTSingle OpLP441new6402
2021-05-03 17:53:02K4TZNewEngQPSingle OpLP3,016new6397
2021-05-03 17:35:12K4TZInQPSingle OpLP8new6395
2021-05-03 17:33:35K4TZDeQPSingle OpLP40new6396
2021-05-03 17:31:15K4TZ7QPSOCWLP3,828new6394
 
2021-05-03 02:26:36N4UL7QPSOCWLP11,682new6394
2021-05-03 01:12:30KM4FOKRC SSTSingle OpLP1,125new6398
2021-05-02 22:47:19KM4FO7QPSOCWLP20,898new6394
2021-05-02 22:46:17KM4FONewEngQPSingle OpLP10,508new6397
2021-05-02 22:43:33KM4FOInQPSingle OpLP10,508new6395
2021-05-02 22:42:02KM4FODeQPSingle OpLP800new6396
2021-05-02 21:02:08ND4YInQPSingle OpLP1,612new6395
2021-05-02 21:00:36ND4YNewEngQPSingle OpLP2,187new6397
2021-05-02 20:59:21ND4YDeQPSingle OpLP160new6396
2021-05-02 20:58:14ND4Y7QPSOMixedLP5,890new6394
 
2021-05-02 15:44:50KE4KYInQPSingle OpHP792new6395
2021-05-02 15:43:55KE4KYNewEngQPSingle OpHP13,728new6397
2021-05-02 15:43:13KE4KYDeQPSingle OpHP1,080new6396
2021-05-02 15:42:15KE4KY7QPSO(A)CWHP27,264new6394
2021-05-02 14:50:31K4WWNewEngQPSingle OpHP7,440new6397
2021-05-02 14:48:13K4WW7QPSO(A)CWHP9,246new6394
2021-05-02 09:30:39K4WWARISO CWHP28,560new6393
2021-05-02 03:10:29K9GXInQPSingle OpLP37,324new6395
2021-04-29 04:05:28K4FNCWopsTSingle OpLP8,550new6386
2021-04-29 03:54:13KC4WQCWopsTSingle OpLP400new6386
 
2021-04-29 03:42:12K4TZCWopsTSingle OpLP462new6386
2021-04-29 03:30:38AA4WWCWopsTSingle OpLP100new6386
2021-04-28 20:18:04KC4WQCWopsTSingle OpLP576new6385
2021-04-28 20:05:13KM4FOCWopsTSingle OpLP3,481new6385
2021-04-28 20:04:34K4FNCWopsTSingle OpLP5,550new6385
2021-04-28 20:04:32K4TZCWopsTSingle OpLP841new6385
2021-04-28 19:42:58K4WWCWopsTSingle OpHP1,296new6385
2021-04-28 19:36:46KE4KYCWopsTSingle OpHP2,704new6385
2021-04-28 18:21:56K4TZFlQPSOABCWLP280new6375
2021-04-28 14:36:24K4WWCWopsTSingle OpHP14,641new6384
 
2021-04-28 14:04:47KM4FOCWopsTSingle OpLP4,096new6384
2021-04-28 14:04:21K4FNCWopsTSingle OpLP7,395new6384
2021-04-28 14:02:55K4TZCWopsTSingle OpLP3,600new6384
2021-04-28 14:02:15KE4KYCWopsTSingle OpHP9,409new6384
2021-04-28 13:26:59AA4WWCWopsTSingle OpLP121new6384
2021-04-26 01:48:51KM4FOKRC SSTSingle OpLP825new6380
2021-04-26 01:24:41N4ULFlQPSOABCWLP2,856new6375
2021-04-25 21:42:12KM4FOFlQPSOABCWLP23,424new6375
2021-04-25 19:05:41KC4WQFlQPSOABCWLP20,008new6375
2021-04-25 15:58:07K4FNFlQPSOAB(A)CWLP24,660new6375
 
2021-04-25 14:18:05KE4KYFlQPSOAB(A)CWLP14,552new6375
2021-04-25 13:44:10K4WWFlQPSOAB(A)CWHP7,800new6375
2021-04-23 03:05:07K4FNNCCC SprintSingle OpLP527new6370
2021-04-22 04:06:28KM4FOCWopsTSingle OpLP5,293new6366
2021-04-22 04:03:28K4FNCWopsTSingle OpLP9,568new6366
2021-04-22 04:02:43K4TZCWopsTSingle OpLP2,352new6366
2021-04-22 04:02:11AA4WWCWopsTSingle OpLP1,296new6366
2021-04-22 03:17:16KC4WQCWopsTSingle OpLP400new6366
2021-04-21 20:07:43KM4FOCWopsTSingle OpLP2,025new6365
2021-04-21 20:03:09K4FNCWopsTSingle OpLP8,280new6365
 
2021-04-21 20:02:24K4TZCWopsTSingle OpLP1,296new6365
2021-04-21 19:31:17KE4KYCWopsTSingle OpHP2,500new6365
2021-04-21 19:30:06AA4WWCWopsTSingle OpLP169new6365
2021-04-21 19:25:45KC4WQCWopsTSingle OpLP625new6365
2021-04-21 14:12:32K4TZCWopsTSingle OpLP3,025new6364
2021-04-21 14:08:26K4WWCWopsTSingle OpHP21,025new6364
2021-04-21 14:06:41K4FNCWopsTSingle OpLP9,312new6364
2021-04-21 14:02:06KM4FOCWopsTSingle OpLP6,084new6364
2021-04-21 13:43:03KE4KYCWopsTSingle OpLP400new6364
2021-04-21 13:38:19AA4WWCWopsTSingle OpLP784new6364
 
2021-04-21 13:16:09KC4WQCWopsTSingle OpLP400new6364
2021-04-19 15:26:59N4ULOnQPSO CWLP1,558new5642
2021-04-19 01:02:14KM4FOKRC SSTSingle OpLP1,058new6358
2021-04-18 23:30:19KM4FOCQMM DXSOABLP9,464new6356
2021-04-18 22:24:40N4QSCQMM DXSOABHP214,500new6356
2021-04-18 21:19:47KM4FOOnQPSO CWLP1,558new5642
2021-04-18 21:18:31KM4FOMiQPSingle OpLP1,540new6357
2021-04-18 19:46:07K4TZMiQPSingle OpLP112new6357
2021-04-18 19:41:55K4TZOnQPSO CWLP1,634new5642
2021-04-18 17:29:09K4WWCQMM DXSOABHP173,304new6356
 
2021-04-16 21:01:55KM4FOKRC SSTSingle OpLP280new6351
2021-04-16 03:08:56K4FNNCCC SprintSingle OpLP288new6350
2021-04-15 04:05:53KM4FOCWopsTSingle OpLP3,965new6347
2021-04-15 03:35:21K4TZCWopsTSingle OpLP576new6347
2021-04-15 03:31:12KC4WQCWopsTSingle OpLP400new